CDT,Max TemperatureF,Mean TemperatureF,Min TemperatureF,Max Dew PointF,MeanDew PointF,Min DewpointF,Max Humidity, Mean Humidity, Min Humidity, Max Sea Level PressureIn, Mean Sea Level PressureIn, Min Sea Level PressureIn, Max VisibilityMiles, Mean VisibilityMiles, Min VisibilityMiles, Max Wind SpeedMPH, Mean Wind SpeedMPH, Max Gust SpeedMPH,PrecipitationIn, CloudCover, Events, WindDirDegrees
2012-10-1,71,58,44,52,41,31,80,56,32,30.08,30.02,29.91,10,10,8,29,13,33,0.02,4,Rain,343
2012-10-2,74,55,36,34,29,25,76,47,17,30.06,29.96,29.86,10,10,10,13,6,18,0.00,0,,229
2012-10-3,83,65,46,45,40,32,65,45,24,30.04,29.82,29.68,10,10,3,31,14,39,0.11,1,Rain-Thunderstorm,180
2012-10-4,57,48,39,39,31,28,70,53,35,30.35,30.26,30.06,10,10,10,30,14,39,T,1,Rain,354
2012-10-5,49,40,31,32,28,24,82,61,39,30.41,30.35,30.32,10,10,10,16,8,20,T,5,Rain,336
2012-10-6,43,35,27,30,23,17,89,63,36,30.45,30.38,30.31,10,10,10,16,7,22,0.00,3,,314
2012-10-7,54,40,25,34,28,23,92,62,32,30.36,30.21,30.05,10,10,10,22,9,26,0.00,0,,244
2012-10-8,74,54,33,34,27,15,96,54,11,30.04,29.89,29.77,10,10,10,22,8,30,0.00,0,,222
2012-10-9,57,44,30,40,28,19,76,51,26,30.20,29.99,29.81,10,10,9,29,12,35,0.00,0,,3
2012-10-10,64,47,29,28,25,21,78,51,23,30.27,30.16,30.03,10,10,1,16,8,24,0.00,0,,222
2012-10-11,61,50,38,35,30,26,59,48,36,30.31,30.11,29.97,10,10,10,26,12,33,0.00,0,,53
2012-10-12,51,43,35,45,31,21,80,62,43,30.33,30.19,29.97,10,10,8,16,9,23,0.05,6,,125
2012-10-13,73,61,48,58,51,43,100,79,57,29.91,29.77,29.59,10,8,1,20,9,25,0.81,5,Rain-Thunderstorm,194
2012-10-14,74,60,46,42,38,36,66,47,27,30.02,29.93,29.69,10,10,10,22,11,31,0.00,0,,328
2012-10-15,80,61,42,45,39,35,82,53,23,30.01,29.88,29.70,10,10,10,17,6,22,0.00,0,,212
2012-10-16,78,64,50,45,41,36,77,50,22,29.68,29.56,29.37,10,10,10,20,9,26,0.00,0,,246
2012-10-17,71,57,43,47,31,13,77,46,15,29.74,29.58,29.37,10,10,9,40,21,51,0.01,2,Rain,305
2012-10-18,54,48,42,31,25,19,53,43,32,29.80,29.73,29.69,10,9,6,46,29,59,0.00,4,,309
2012-10-19,60,50,39,34,31,28,70,50,29,29.89,29.84,29.80,10,10,9,30,13,41,0.00,0,,321
2012-10-20,73,57,40,37,33,27,79,51,22,29.81,29.71,29.64,10,10,10,13,8,18,0.00,0,,156
2012-10-21,79,60,40,57,46,36,79,60,40,29.78,29.70,29.64,10,10,9,17,6,23,0.00,1,,112
2012-10-22,57,52,47,50,48,43,100,79,57,29.86,29.82,29.73,10,4,1,21,9,26,T,8,Rain,12
2012-10-23,63,53,43,55,50,43,100,86,72,29.81,29.74,29.68,10,3,0,13,4,14,0.01,6,Fog,116
2012-10-24,52,47,41,52,47,37,100,92,83,29.83,29.78,29.74,10,3,0,25,16,32,0.39,8,Fog-Rain-Thunderstorm,22
2012-10-25,43,38,32,37,31,24,96,77,57,30.41,30.09,29.79,10,9,4,32,21,40,0.07,7,Rain-Snow,346
2012-10-26,41,33,25,25,22,20,84,65,46,30.58,30.49,30.37,10,10,10,18,8,28,0.00,4,,348
2012-10-27,44,34,24,27,24,20,88,69,49,30.44,30.34,30.23,10,10,10,15,8,20,0.00,1,,178
2012-10-28,50,39,27,30,27,23,85,64,42,30.28,30.21,30.13,10,10,10,17,11,25,0.00,4,,170
2012-10-29,63,50,37,35,31,28,70,52,34,30.13,30.08,30.03,10,10,10,16,8,23,0.00,1,,160
2012-10-30,60,46,32,34,33,30,92,64,36,30.06,30.01,29.97,10,10,10,10,6,14,0.00,1,,90
2012-10-31,71,52,33,39,35,29,82,57,31,30.06,30.02,29.96,10,10,10,8,2,10,0.00,1,,224